Flag for Ukraine Weather past 2 weeks in Kyiv, Ukraine

Now
37 °F

Clear.


Feels Like: 35 °F
Forecast: 30 / 41 °F
Wind: 3 mph from Southwest

Location: Kyiv

Current Time: Mar 4, 2015 at 7:13:16 PM

Latest Report: Mar 4, 2015 at 6:30 PM


Visibility: 10 mi

Pressure: 30.09 "Hg

Humidity: 65%

Dew point: 27 °F

Location of KyivLocation

Historic Weather in Kyiv — Graph

°F

Kyiv temperature yesterday

Maximum temperature yesterday: 41 °F (at 8:30 AM)
Minimum temperature yesterday: 34 °F (at 9:30 PM)
Average temperature yesterday: 38 °F

Past Weeks' High & Low Weather Summary

 TemperatureHumidityPressure
High48 °F (Mar 1, 1:00 PM)100% (Feb 19, 7:00 AM)30.74 "Hg (Feb 19, 7:00 AM)
Low3 °F (Feb 18, 5:30 AM)31% (Feb 18, 1:30 PM)29.74 "Hg (Mar 3, 3:00 AM)
Average36 °F84%30.06 "Hg
* Reported Feb 17 5:00 PM — Mar 4 5:30 PM, Kyiv, Weather by CustomWeather, © 2015

Note: Actual official high and low records may vary slightly from our data, if they occured in-between our weather recording intervals... More about our weather records

Advertising

Kyiv weather history for previous 24 hours

 ConditionsComfort  
Time TempWeatherWind HumidityBarometerVisibility
5:30 PM
Wed, Mar 4
41 °FSunny.6 mph53%30.07 "Hg10 mi
5:00 PM43 °FScattered clouds.8 mph49%30.07 "HgN/A
4:30 PM43 °FScattered clouds.10 mph49%30.07 "HgN/A
4:00 PM45 °FPartly sunny.10 mph49%30.07 "HgN/A
3:30 PM45 °FPartly sunny.8 mph49%30.07 "HgN/A
3:00 PM45 °FPartly sunny.8 mph49%30.07 "HgN/A
2:30 PM43 °FPartly sunny.10 mph53%30.07 "HgN/A
2:00 PM43 °FPartly sunny.13 mph53%30.07 "HgN/A
1:30 PM43 °FPartly sunny.8 mph57%30.07 "HgN/A
1:00 PM43 °FPartly sunny.10 mph57%30.07 "HgN/A
12:30 PM39 °FPartly sunny.13 mph70%30.07 "HgN/A
12:00 PM41 °FPartly sunny.13 mph66%30.07 "HgN/A
11:30 AM39 °FPartly sunny.10 mph75%30.07 "HgN/A
11:00 AM39 °FPartly sunny.13 mph81%30.07 "HgN/A
10:30 AM37 °FPartly sunny.13 mph81%30.07 "HgN/A
10:00 AM37 °FPartly sunny.10 mph81%30.07 "HgN/A
9:30 AM36 °FPartly sunny.10 mph87%30.07 "HgN/A
9:00 AM34 °FPartly sunny.10 mph87%30.07 "HgN/A
8:30 AM34 °FBroken clouds.13 mph87%30.07 "HgN/A
8:00 AM34 °FPartly sunny.10 mph87%30.07 "HgN/A
7:30 AM34 °FSunny.10 mph87%30.04 "Hg10 mi
7:00 AM34 °FSunny.10 mph87%30.04 "Hg10 mi
6:30 AM34 °FClear.10 mph87%30.04 "Hg10 mi
6:00 AM34 °FPartly cloudy.10 mph81%30.01 "HgN/A
5:30 AM34 °FLight snow. Passing clouds.10 mph87%30.01 "HgN/A
5:00 AM34 °FPassing clouds.8 mph87%30.01 "HgN/A
4:30 AM34 °FClear.13 mph87%30.01 "Hg10 mi
4:00 AM34 °FClear.13 mph87%29.98 "Hg10 mi
3:30 AM34 °FClear.15 mph87%29.98 "Hg10 mi
3:00 AM34 °FClear.15 mph87%29.98 "Hg10 mi
2:30 AM34 °FClear.13 mph81%29.98 "Hg10 mi
2:00 AM34 °FClear.13 mph81%29.98 "Hg10 mi
1:30 AM34 °FClear.10 mph87%29.95 "Hg10 mi
1:00 AM34 °FClear.10 mph81%29.95 "Hg10 mi
12:30 AM34 °FClear.13 mph81%29.95 "Hg10 mi
12:00 AM36 °FClear.10 mph81%29.95 "Hg10 mi
11:30 PM
Tue, Mar 3
34 °FClear.8 mph93%29.95 "Hg10 mi
11:00 PM34 °FClear.3 mph93%29.95 "Hg5 mi
10:30 PM34 °FClear.3 mph93%29.92 "Hg4 mi
9:30 PM34 °FClear.6 mph100%29.92 "Hg4 mi
9:00 PM36 °FClear.6 mph93%29.92 "Hg4 mi
8:30 PM36 °FClear.3 mph100%29.92 "Hg4 mi
8:00 PM36 °FClear.3 mph93%29.89 "Hg4 mi
7:30 PM37 °FClear.3 mph93%29.89 "Hg6 mi
7:00 PM37 °FClear.3 mph93%29.89 "Hg10 mi
Weather by CustomWeather, © 2015

See weather overviewHow to use our weather pages